STARLINK-31701 (59582 NORAD) Tracking and Keplerian Element Data

This shows tracking and keplerian element data for the satellite.

Feedback or suggestion? Click here.




ElementValue
Catalog59582
NameSTARLINK-31701
Epoch Orbit813
Epoch Day160.08763373
Epoch Year2024
RAAN54.0404
Inclination42.9992
Eccentricity8.15E-05
Argument of Perigee256.3009
Mean Anonmoly103.7757
Mean Motion15.40703294
Decay Rate5.16E-06
L11 59582U 24076U 24160.08763373 .00000516 00000+0 19603-4 0 9992
L22 59582 42.9992 54.0404 0000815 256.3009 103.7757 15.40703294 8139



Live tracking and technical data element details for STARLINK-31701 (NORAD 59582). STARLINK-31701 can be tracked NOW for your location showing map with azimuth and elevation plus other details from your city location.







IsCatalogInMostPopularTable: catalog: 59582, numindb: 13
Update: records affected: 1



GetName: 59582 STARLINK-31701

Hit Count: updated at: Fri, 14 Jun 2024 19:56:08 GMT